Chicago, IL

12:22 PM CST on November 12, 2019 (GMT -0600)
Chicago-O'Hare International

Weather History for KORD - May, 2019

Change the Weather History Date:

Saturday, May 4, 2019

  Actual Average Record
Temperature  
Mean Temperature 51 °F 56 °F  
Max Temperature 63 °F 66 °F 92 °F (1952)
Min Temperature 38 °F 45 °F 32 °F (1966)
Degree Days  
Heating Degree Days 14 10  
Month to date heating degree days 66 42  
Since 1 July heating degree days 6255 6109  
Cooling Degree Days 0 1  
Month to date cooling degree days 0 2  
Year to date cooling degree days 4 12  
Moisture  
Dew Point 38 °F    
Average Humidity 66    
Maximum Humidity 92    
Minimum Humidity 39    
Precipitation  
Precipitation 0.00 in 0.11 in 1.70 in (1990)
Month to date precipitation 1.42 0.46  
Year to date precipitation 14.30 9.86  
Snow  
Snow 0.00 in 0.00 in T in (1891)
Month to date snowfall 0.0 0.0  
Since 1 July snowfall 49.5 36.3  
Snow Depth 0.00 in    
Sea Level Pressure  
Sea Level Pressure 29.99 in    
Wind  
Wind Speed 5 mph (NNE)    
Max Wind Speed 13 mph    
Max Gust Speed 18 mph    
Visibility 10 miles    
Events      
T = Trace of Precipitation, MM = Missing Value Source: NWS Daily Summary

Daily Weather History Graph

Daily Weather History Graph

Search for Another Location

Airport or City:

Astronomy

May. 04, 2019 Rise Set
Actual Time 5:43 AM CDT 7:53 PM CDT
Civil Twilight 5:13 AM CDT 8:24 PM CDT
Nautical Twilight 4:35 AM CDT 9:02 PM CDT
Astronomical Twilight 3:54 AM CDT 9:43 PM CDT
Moon 5:57 AM CDT (5/4) 7:41 PM CDT (5/4)
Length of Visible Light 15h 10m
Length of Day
14h 09m
Waning Crescent, 0% of the Moon is Illuminated
May 4
Waning Crescent
May 4
New
May 11
First Quarter
May 18
Full
May 26
Last Quarter

Hourly Weather History & Observations

Time (CDT) Temp. Windchill Dew Point Humidity Pressure Visibility Wind Dir Wind Speed Gust Speed Precip Events Conditions
12:51 AM 41.0 °F 37.1 °F 37.0 °F 86% 30.04 in 10.0 mi North 5.8 mph - N/A   Partly Cloudy
1:51 AM 39.9 °F 35.8 °F 37.0 °F 89% 30.02 in 10.0 mi North 5.8 mph - N/A   Partly Cloudy
2:51 AM 41.0 °F 39.0 °F 37.0 °F 86% 30.02 in 10.0 mi NNE 3.5 mph - N/A   Scattered Clouds
3:51 AM 39.9 °F 35.8 °F 37.0 °F 89% 30.02 in 10.0 mi NNW 5.8 mph - N/A   Scattered Clouds
4:51 AM 39.9 °F 36.7 °F 36.0 °F 86% 30.02 in 10.0 mi North 4.6 mph - N/A   Mostly Cloudy
5:51 AM 39.0 °F 34.8 °F 36.0 °F 89% 30.04 in 10.0 mi North 5.8 mph - N/A   Mostly Cloudy
6:51 AM 42.1 °F 38.4 °F 37.9 °F 85% 30.05 in 10.0 mi North 5.8 mph - N/A   Mostly Cloudy
7:51 AM 45.0 °F 41.8 °F 39.0 °F 80% 30.06 in 10.0 mi North 5.8 mph - N/A   Mostly Cloudy
8:51 AM 50.0 °F - 39.9 °F 68% 30.05 in 10.0 mi North 3.5 mph - N/A   Scattered Clouds
9:51 AM 54.0 °F - 39.9 °F 59% 30.03 in 10.0 mi NE 6.9 mph - N/A   Partly Cloudy
10:51 AM 57.0 °F - 39.9 °F 53% 30.03 in 10.0 mi NNE 9.2 mph - N/A   Partly Cloudy
11:51 AM 57.9 °F - 39.9 °F 51% 30.01 in 10.0 mi NNE 9.2 mph - N/A   Partly Cloudy
12:51 PM 60.1 °F - 41.0 °F 49% 30.00 in 10.0 mi NE 5.8 mph - N/A   Partly Cloudy
1:51 PM 61.0 °F - 39.9 °F 46% 29.98 in 10.0 mi ENE 5.8 mph - N/A   Partly Cloudy
2:51 PM 62.1 °F - 39.0 °F 43% 29.96 in 10.0 mi NNE 8.1 mph - N/A   Partly Cloudy
3:51 PM 62.1 °F - 37.9 °F 41% 29.94 in 10.0 mi NE 6.9 mph - N/A   Partly Cloudy
4:51 PM 63.0 °F - 37.9 °F 40% 29.94 in 10.0 mi East 6.9 mph - N/A   Partly Cloudy
5:51 PM 62.1 °F - 37.0 °F 39% 29.93 in 10.0 mi ENE 8.1 mph - N/A   Partly Cloudy
6:51 PM 60.1 °F - 37.0 °F 42% 29.92 in 10.0 mi East 6.9 mph - N/A   Partly Cloudy
7:51 PM 55.9 °F - 37.0 °F 49% 29.91 in 10.0 mi East 6.9 mph - N/A   Scattered Clouds
8:51 PM 55.0 °F - 37.0 °F 51% 29.91 in 10.0 mi SE 3.5 mph - N/A   Scattered Clouds
9:51 PM 54.0 °F - 39.0 °F 57% 29.91 in 10.0 mi South 3.5 mph - N/A   Partly Cloudy
10:51 PM 52.0 °F - 37.9 °F 59% 29.91 in 10.0 mi Calm Calm - N/A   Clear
11:51 PM 51.1 °F - 39.0 °F 63% 29.91 in 10.0 mi Calm Calm - N/A   Clear